EW2167 Weather Reports


Display with metric or nautical units.
time (UTC)temp
F
wind
direction
speed
MPH
gust
MPH
rain 1hr
in
rain 24hr
in
rain mn
in
humidity
%
barometer
mb
20260507061534 42 0 0.0 1.0 0.00 0.16 0.00 89 1015.2
20260507060032 42 0 0.0 1.0 0.00 0.16 0.00 89 1015.1
20260507054529 42 0 0.0 1.0 0.00 0.28 0.00 89 1015.2
20260507053029 42 0 0.0 0.0 0.00 0.28 0.00 89 1015.3
20260507051532 43 0 0.0 1.0 0.00 0.28 0.00 88 1015.3
20260507050033 44 0 0.0 3.0 0.00 0.28 0.00 88 1015.1
20260507044543 44 0 0.0 0.0 0.00 0.47 0.00 88 1015.3
20260507043037 44 0 0.0 0.0 0.00 0.47 0.00 87 1015.3
20260507041531 45 0 0.0 0.0 0.00 0.47 0.00 87 1015.3
20260507040030 45 0 0.0 0.0 0.00 0.47 0.00 87 1015.3
20260507034532 45 0 0.0 0.0 0.00 0.63 0.47 86 1015.2
20260507033032 45 0 0.0 0.0 0.00 0.63 0.47 87 1015.2
20260507031532 45 0 0.0 0.0 0.00 0.63 0.47 86 1015.1
20260507030030 46 0 0.0 0.0 0.00 0.63 0.47 86 1015.3
20260507024531 47 0 0.0 0.0 0.00 0.68 0.47 84 1015.3
20260507023030 47 0 0.0 0.0 0.00 0.68 0.47 83 1015.1
20260507021529 47 0 0.0 0.0 0.00 0.68 0.47 85 1015.1
20260507020034 48 0 0.0 0.0 0.00 0.68 0.47 84 1015.0
20260507014537 49 0 0.0 0.0 0.00 0.75 0.47 82 1014.9
20260507013035 49 0 0.0 0.0 0.00 0.75 0.47 80 1014.7
20260507011532 49 0 0.0 0.0 0.00 0.75 0.47 85 1014.5
20260507010032 50 0 0.0 0.0 0.00 0.75 0.47 84 1014.4
20260507004532 51 0 0.0 0.0 0.00 0.93 0.47 82 1014.6
20260507003031 53 0 0.0 0.0 0.00 0.93 0.47 68 1014.4
20260507001531 54 0 0.0 0.0 0.00 0.93 0.47 65 1014.3
20260507000032 55 0 0.0 1.0 0.00 0.93 0.47 64 1014.1
20260506234530 56 26 0.0 4.0 0.00 0.98 0.47 60 1014.1
20260506233032 56 5 0.0 6.0 0.00 0.98 0.47 62 1014.0
20260506231529 57 323 0.0 5.0 0.00 0.98 0.47 59 1014.0
20260506230030 57 5 3.0 10.0 0.00 0.98 0.47 56 1013.6
20260506224534 58 0 1.0 9.0 0.00 1.01 0.47 56 1013.7
20260506223034 58 295 2.0 7.0 0.00 1.01 0.47 58 1013.7
20260506221532 57 305 0.0 5.0 0.00 1.01 0.47 59 1013.9
20260506220036 57 329 0.0 4.0 0.00 1.01 0.47 59 1014.0
20260506214529 57 0 1.0 5.0 0.00 1.04 0.47 63 1014.0
20260506213028 57 360 0.0 5.0 0.00 1.04 0.47 59 1014.0
20260506211531 57 0 1.0 6.0 0.00 1.04 0.47 60 1013.7
20260506210032 58 0 0.0 4.0 0.00 1.04 0.47 61 1013.7
20260506204530 58 251 2.0 7.0 0.00 1.12 0.47 57 1013.5
20260506203030 58 352 1.0 5.0 0.00 1.12 0.47 55 1013.7
20260506201542 58 319 0.0 6.0 0.00 1.12 0.47 58 1013.6
20260506200031 57 292 1.0 5.0 0.00 1.12 0.47 57 1013.7
20260506194532 57 0 1.0 8.0 0.00 1.22 0.47 57 1013.9
20260506193037 57 44 3.0 9.0 0.00 1.22 0.47 57 1013.8
20260506191529 57 332 1.0 8.0 0.00 1.22 0.47 55 1013.6
20260506190032 58 312 3.0 13.0 0.00 1.22 0.47 56 1013.3
20260506184529 58 38 5.0 13.0 0.00 1.29 0.47 55 1013.2
20260506183030 58 19 1.0 13.0 0.00 1.29 0.47 59 1013.1
20260506181532 58 55 4.0 13.0 0.00 1.29 0.47 58 1013.2
20260506180030 59 336 2.0 7.0 0.00 1.29 0.47 59 1013.3
20260506174529 58 66 3.0 11.0 0.00 1.29 0.47 59 1013.4
20260506173030 58 246 2.0 10.0 0.00 1.29 0.47 62 1013.7
20260506171539 57 319 3.0 9.0 0.00 1.29 0.47 65 1013.7
20260506170031 56 30 3.0 8.0 0.00 1.29 0.47 62 1013.7
20260506164530 55 315 1.0 10.0 0.00 1.29 0.47 64 1013.9
20260506163039 54 9 3.0 9.0 0.00 1.29 0.47 65 1014.0
20260506161537 55 44 3.0 9.0 0.00 1.29 0.47 66 1013.7
20260506160034 54 5 1.0 10.0 0.00 1.29 0.47 68 1014.0
20260506154537 53 46 7.0 12.0 0.00 1.29 0.47 67 1013.8
20260506153038 53 28 3.0 11.0 0.00 1.29 0.47 71 1013.5
20260506151530 51 34 6.0 11.0 0.00 1.29 0.47 71 1013.5
20260506150032 51 13 2.0 10.0 0.00 1.29 0.47 73 1014.0
20260506144530 50 352 5.0 11.0 0.00 1.29 0.47 75 1013.0
20260506143032 48 21 5.0 12.0 0.00 1.29 0.47 76 1012.9
20260506141531 48 39 5.0 10.0 0.00 1.29 0.47 79 1012.6
20260506140037 48 17 3.0 9.0 0.00 1.29 0.47 83 1012.7
20260506134530 47 0 1.0 8.0 0.00 1.29 0.47 84 1012.6
20260506133031 47 5 3.0 11.0 0.00 1.29 0.47 83 1012.5
20260506131534 47 331 3.0 9.0 0.00 1.29 0.47 85 1012.4
20260506130030 46 352 2.0 9.0 0.00 1.29 0.47 87 1012.1
20260506124531 46 352 3.0 8.0 0.00 1.30 0.47 87 1012.0
20260506123030 45 339 1.0 5.0 0.00 1.30 0.47 88 1012.1
20260506121530 45 0 2.0 6.0 0.00 1.30 0.47 89 1012.0
20260506120033 45 352 0.0 4.0 0.00 1.30 0.47 90 1011.7
20260506114530 44 317 0.0 4.0 0.00 1.30 0.47 90 1011.3
20260506113032 44 9 1.0 4.0 0.00 1.30 0.47 91 1010.7
20260506111533 44 5 1.0 4.0 0.00 1.30 0.47 91 1010.7
20260506110030 43 5 2.0 5.0 0.00 1.30 0.47 91 1010.8
20260506104531 43 11 2.0 5.0 0.00 1.31 0.47 92 1010.1
20260506103032 43 11 1.0 4.0 0.00 1.31 0.47 92 1010.1
20260506101536 43 0 1.0 5.0 0.00 1.31 0.47 91 1010.1
20260506100036 43 5 0.0 4.0 0.00 1.31 0.47 91 1010.1
20260506094531 43 25 3.0 7.0 0.00 1.40 0.47 91 1009.3
20260506093052 43 32 1.0 6.0 0.00 1.40 0.47 91 1009.4
20260506091534 43 32 3.0 6.0 0.00 1.40 0.47 90 1009.7
20260506090034 43 19 2.0 9.0 0.00 1.40 0.47 90 1008.9
20260506084532 43 42 3.0 12.0 0.00 1.40 0.47 90 1008.8
20260506083031 43 22 7.0 17.0 0.01 1.40 0.47 90 1008.7
20260506081533 43 5 6.0 12.0 0.01 1.40 0.47 91 1008.8
20260506073033 44 41 6.0 19.0 0.11 1.39 0.46 92 1008.4
20260506071529 45 323 9.0 17.0 0.14 1.39 0.46 92 1008.5